Location: Ammareddip?lem
(16.9681°N, 80.4999°E)
Time: 14:49:07
(UTC+00:00)

Envisat - Pass Details

Date: 25 October 2021
Orbit: 764 x 766 km, 98.2° (Epoch: 04 December)

Event Time Altitude Azimuth Distance (km) Brightness Sun altitude
Rises 23:50:07 0° 3° (N) 3,223 6.2 -11.1°
Reaches altitude 10° 23:52:28 10° 358° (N) 2,296 5.3 -10.5°
Maximum altitude 23:57:20 49° 284° (WNW) 980 3.2 -9.4°
Drops below altitude 10° 00:02:11 10° 210° (SSW) 2,291 5.3 -8.3°
Sets 00:04:33 0° 205° (SSW) 3,215 6.1 -7.7°
